Location: Recife
(8.0585°S, 34.8848°W)
Time: 07:10:49
(UTC-03:00)

Courier 1B - Pass Details

Date: 15 April 2026
Orbit: 962 x 1209 km, 28.3° (Epoch: 13 May)

Event Time Altitude Azimuth Distance (km) Brightness Sun altitude
Rises 11:07:21 0° 230° (SW) 4,088 10.6 71.8°
Reaches altitude 10° 11:11:34 10° 210° (SSW) 3,092 10.1 71.9°
Maximum altitude 11:16:07 16° 173° (S) 2,589 9.8 72.0°
Drops below altitude 10° 11:20:32 10° 136° (SE) 2,994 10.0 72.0°
Sets 11:24:31 0° 115° (ESE) 3,899 10.6 72.0°
